Retour au catalogue

ATLAS 5 CENTAUR DEB

LostHEO
NORAD 49371·DEBRIS·🇺🇸 United States

Lancé Oct 17, 2018 depuis Cape Canaveral Space Force Station

Loading…

Prochains Passages (prochaines 24 heures)

TLE

PériméSource: Space-Track

Époque: Feb 28, 2022, 18:46 UTC

1 49371U 18079FY  22059.78221333 -.00000116  00000-0  00000+0 0  9994
2 49371  10.8894 178.4645 4722951  47.5812 343.5971  1.84562044  3490

Suivez ATLAS 5 CENTAUR DEB en temps réel avec AllMySat

Download on the App Store